Regional Weather Roundup
Issued by NWS

Home | Current Version | Previous Version | Text Only | Print | Product List | Glossary Off
Versions: 1 2 3 4 5 6 7 8 9 10 11 12 13 14 15 16 17 18 19 20 21 22 23 24 25 26 27 28 29 30 31 32 33 34 35 36 37 38 39 40 41 42 43 44 45 46 47 48 49 50

000
ASUS43 KLOT 040408
RWRIL

ILLINOIS REGIONAL WEATHER ROUNDUP
NATIONAL WEATHER SERVICE CHICAGO/ROMEOVILLE IL
1100 PM CDT FRI JUL 03 2015

NOTE: "FAIR" INDICATES FEW OR NO CLOUDS BELOW 12,000 FEET WITH NO
SIGNIFICANT WEATHER AND/OR OBSTRUCTIONS TO VISIBILITY.

* THESE STATIONS ARE NOT UNDER NWS QUALITY CONTROL. THEY ALSO MAY NOT
  REPORT WEATHER SUCH AS PRECIPITATION OR FOG.

ILZ001-002-007-009-015-016-024-040500-
NORTHWEST ILLINOIS

CITY           SKY/WX    TMP DP  RH WIND       PRES   REMARKS
MOLINE         CLEAR     63  59  87 CALM      29.95R
STERLING*      CLEAR     61  57  88 CALM      29.96R
SAVANNA*       CLEAR     62  60  93 CALM      29.95S
$$

ILZ003-004-008-010-011-017-018-040500-
NORTH CENTRAL ILLINOIS

CITY           SKY/WX    TMP DP  RH WIND       PRES   REMARKS
ROCKFORD       PTCLDY    64  59  83 CALM      29.96R
FREEPORT*      CLEAR     59  56  90 CALM      29.97S
ROCHELLE*      CLEAR     62  60  91 CALM      29.96R
DE KALB*       CLEAR     62  56  80 W3        29.96S
PERU*          CLEAR     67  59  75 N3        29.96R
$$

ILZ005-006-012>014-019>023-040500-
NORTHEAST ILLINOIS

CITY           SKY/WX    TMP DP  RH WIND       PRES   REMARKS
CHICAGO-OHARE  MOCLDY    64  54  69 S3        29.94R
CHICAGO-MIDWAY MOCLDY    67  54  63 CALM      29.94R
AURORA         CLEAR     66  55  67 CALM      29.95R
LANSING*       CLEAR     62  52  70 CALM      29.95S
JOLIET*        CLEAR     63  59  86 CALM      29.95R
WAUKEGAN       CLEAR     56  54  93 CALM      29.94R
DUPAGE AIRPORT CLEAR     63  55  75 CALM      29.94R
KANKAKEE*      CLEAR     64  59  85 E3        29.95S
WHEELING       CLEAR     62  54  74 CALM      29.95S
MORRIS*        CLEAR     65  57  73 SE3       29.92F
ROMEOVILLE*    CLEAR     64  54  70 SE3       29.95S
NORTHERLY ISL    N/A     64  56  75 S1          N/A
$$

LMZ740>746-040500-
SOUTHERN LAKE MICHIGAN

STATION/POSITION SKY/WX   TEMP    WIND        PRES    VSBY  WAVE
                          AIR SEA DIR/SP/G                  HT/PER
                          (F)     (DEG/KT/KT) (MB)    (MI)  (FT/S)
HARRISON CRIB              63     180/  6/  6   N/A
BURNHAM HARBOR             63     170/  2       N/A
CALUMET HARBOR             65     110/  3/  5   N/A
BURNS HARBOR               65     110/  3/  4 1014.6R
MICHIGAN CITY              63     100/  5/  6   N/A
MICHIGAN CITY 6N           63 64  150/  2/  2   N/A           1
ST. JOSEPH                 62 62                N/A           1
$$

ILZ025>027-034>036-040-047-049-050-058-095>099-040500-
WEST-CENTRAL ILLINOIS

CITY           SKY/WX    TMP DP  RH WIND       PRES   REMARKS
QUINCY         CLEAR     68  62  81 N3        29.96R
GALESBURG*     CLEAR     62  60  93 CALM      29.96R
MACOMB*        CLEAR     63  61  95 CALM      29.98R
JACKSONVILLE*  PTCLDY    68  65  92 CALM      29.95R
PITTSFIELD*    CLEAR     68  64  87 CALM      29.97R
$$

ILZ028>032-037-038-041>044-048-051>054-059>061-040500-
CENTRAL ILLINOIS

CITY           SKY/WX    TMP DP  RH WIND       PRES   REMARKS
PONTIAC        CLEAR     62  61  96 CALM      29.95S
BLOOMINGTON    CLEAR     67  60  78 NE3       29.97R
DECATUR        CLEAR     63  61  93 CALM      29.95R
PEORIA         CLEAR     68  59  73 CALM      29.95R
LACON*         CLEAR     62  58  88 CALM      29.95R
LINCOLN*       PTCLDY    67  63  87 CALM      29.95R
SPRINGFIELD    CLEAR     67  64  90 CALM      29.95R
TAYLORVILLE    CLEAR     64  63  94 CALM      29.95R
$$

ILZ033-039-045-046-055>057-062-063-040500-
EAST-CENTRAL ILLINOIS

CITY           SKY/WX    TMP DP  RH WIND       PRES   REMARKS
CHAMPAIGN      CLEAR     62  59  90 CALM      29.95R
DANVILLE*      CLEAR     60  59  97 CALM      29.93R FOG
RANTOUL*       CLEAR     65  61  86 CALM      29.95S
MATTOON        CLEAR     66  63  90 N3        29.93S
PARIS*         CLEAR     67  64  92 N3        29.95S
$$

ILZ079-100>102-040500-
SOUTHWEST ILLINOIS

CITY           SKY/WX    TMP DP  RH WIND       PRES   REMARKS
ALTON          CLEAR     68  68 100 CALM      29.94R
BELLEVILLE     CLEAR     71  71  99 N1        29.92R
CAHOKIA*       CLEAR     71  67  87 CALM      29.93R
SPARTA*        CLEAR     71  67  87 CALM      29.93R
$$

ILZ064>066-069>071-074>076-080>082-084>086-088>090-092>094-040500-
SOUTH-CENTRAL ILLINOIS

CITY           SKY/WX    TMP DP  RH WIND       PRES   REMARKS
CARBONDALE     PTCLDY    72  68  87 N3        29.91R
CAIRO*         CLEAR     72  72  98 S3        29.91R
EFFINGHAM*     CLEAR     69  63  80 CALM      29.95R
MARION         CLEAR     72  68  88 CALM      29.92R
MT. VERNON     PTCLDY    70  64  83 N5        29.93R
CENTRALIA*     FAIR      70  65  85 CALM      29.93R
SALEM*         CLEAR     73  67  83 CALM      29.93R
METROPOLIS*    MOCLDY    71  71 100 CALM      29.92R
$$

ILZ067-068-072-073-078-083-087-091-040500-
SOUTHEAST ILLINOIS

CITY           SKY/WX    TMP DP  RH WIND       PRES   REMARKS
LAWRENCEVILLE  CLEAR     68  66  93 N5        29.92S
FLORA*         CLEAR     69  66  92 N5        29.93R
FAIRFIELD*     CLEAR     70  69  98 N5        29.91R FOG
HARRISBURG*    CLEAR     71  69  96 CALM      29.92R
ROBINSON*      PTCLDY    66  65  97 NW5       29.93S FOG
CARMI*         CLEAR     71  65  81 N6        29.90S HAZE
$$

ABBREVIATIONS USED IN REMARKS
   TC - TEMPERATURE IN CELSIUS
  WCI - WIND CHILL INDEX
   HX - HEAT INDEX
  VSB - VISIBILITY
$$




USA.gov is the U.S. government's official web portal to all federal, state and local government web resources and services.